Location: Sibbertoft
(52.4361°N, 1.0300°W)
Time: 02:36:50
(UTC+01:00)

Tiangong 2 - Visible Passes

Search period start: 22 August 2018 00:00
Search period end: 01 September 2018 00:00
Orbit: 384 x 395 km, 42.8° (Epoch: 21 August)

Date Brightness Start Highest point End Pass type
(mag) Time Alt. Az. Time Alt. Az. Time Alt. Az.
22 Aug 3.3 04:48:53 11° SSW 04:50:18 14° S 04:52:05 10° SE visible
23 Aug 3.7 03:53:40 11° SSE 03:53:40 11° SSE 03:54:01 10° SE visible
24 Aug 3.1 04:30:48 15° S 04:31:04 15° S 04:33:00 10° SE visible
25 Aug 3.3 05:08:01 11° SW 05:09:29 13° S 05:11:06 10° SSE visible
26 Aug 3.5 04:13:00 12° SSE 04:13:00 12° SSE 04:13:41 10° SSE visible
27 Aug 3.4 04:50:27 11° SSW 04:50:27 11° SSW 04:50:59 10° S visible
